Regional Weather Roundup
Issued by NWS

Home | Current Version | Previous Version | Graphics & Text | Print | Product List | Glossary On
Versions: 1 2 3 4 5 6 7 8 9 10 11 12 13 14 15 16 17 18 19 20 21 22 23 24 25 26 27 28 29 30 31 32 33 34 35 36 37 38 39 40 41 42 43 44 45 46 47 48 49 50
000
ASUS43 KBIS 281610
RWRND

NORTH DAKOTA REGIONAL WEATHER ROUNDUP
NATIONAL WEATHER SERVICE BISMARCK ND
1100 AM CDT FRI AUG 28 2015

NOTE: "FAIR" INDICATES FEW OR NO CLOUDS BELOW 12,000 FEET WITH NO
SIGNIFICANT WEATHER AND/OR OBSTRUCTIONS TO VISIBILITY.


NDZ001>003-009>011-017-281700-
NORTHWEST NORTH DAKOTA

CITY           SKY/WX    TMP DP  RH WIND       PRES   REMARKS
WILLISTON      SUNNY     70  60  70 S6        29.91S
MINOT          MOSUNNY   76  61  59 VRB6      29.86R
MINOT AFB      MOSUNNY   77  62  60 NW9       29.85R
$$

NDZ018>021-031>035-040>046-281700-
SOUTHWEST NORTH DAKOTA

CITY           SKY/WX    TMP DP  RH WIND       PRES   REMARKS
BISMARCK       SUNNY     74  63  68 SW8       29.91S
DICKINSON      SUNNY     75  55  49 W9        29.94R
GARRISON         N/A     72  62  71 W7        29.89R
HETTINGER ARPT SUNNY     75  53  46 W10       29.99R
$$

NDZ004>008-012>016-024-026-027-054-281700-
NORTHEAST NORTH DAKOTA

CITY           SKY/WX    TMP DP  RH WIND       PRES   REMARKS
GRAND FORKS    CLOUDY    71  65  81 SE7       29.90R
GRND FRKS AFB  CLOUDY    70  65  83 E6        29.89R
DEVILS LAKE    MOSUNNY   72  61  68 S10       29.85S
$$

NDZ022-023-025-028>030-036>039-047>053-281700-
SOUTHEAST NORTH DAKOTA

CITY           SKY/WX    TMP DP  RH WIND       PRES   REMARKS
FARGO          SUNNY     75  66  73 S14       29.93R
JAMESTOWN      SUNNY     74  67  78 S12       29.91S
$$




USA.gov is the U.S. government's official web portal to all federal, state and local government web resources and services.